Theta_e
301 301 301 301 301 301 301 301 302 302 302 302 302 302 302 302 302 302 302 302 303 304 304 305 306 306 305 305 307 308 310 313 314 315 316 317 317 317 316 315 313 309 306 305 304 304 308 314 317 320 325 330 330 328 326 327 332 334 335 334 334 334 332 331 331 331 331 329 327 325 326 326 327 326 326 326 325 325 324 324 326 327 328 329 329 331 332 332
301 301 301 301 301 301 301 302 302 302 302 302 302 302 302 302 301 302 302 302 303 303 304 305 305 306 306 306 306 307 310 312 313 314 315 316 316 316 316 316 314 311 307 305 305 305 312 319 320 322 325 329 330 328 326 327 332 335 335 334 333 333 332 331 330 330 330 329 328 327 327 327 327 326 326 326 325 325 325 325 325 327 330 329 325 325 325 327
301 301 301 301 301 301 301 301 302 302 302 302 302 302 302 302 302 302 302 302 303 303 304 305 305 306 306 306 307 308 309 311 312 313 313 313 315 315 316 316 315 313 310 306 304 306 315 322 322 325 327 328 330 328 325 326 332 333 333 332 332 332 331 332 331 330 330 330 329 328 327 327 327 326 325 326 325 325 324 325 325 326 330 329 325 323 322 324
301 301 301 301 301 302 301 301 301 302 302 302 302 302 302 303 303 302 302 302 303 303 304 304 305 305 306 306 307 308 309 311 312 313 313 313 313 314 314 315 315 315 313 308 303 307 317 321 322 327 329 329 329 329 325 325 331 332 331 331 330 330 331 332 332 331 331 330 329 328 328 327 327 327 325 325 326 325 325 326 325 325 328 328 326 323 323 322
300 301 301 301 301 301 302 301 301 302 302 302 302 302 302 302 303 303 302 302 302 303 304 304 304 305 306 306 306 308 309 311 312 314 314 314 314 315 315 315 315 316 315 310 304 306 315 320 322 326 330 330 329 329 327 325 328 330 330 329 328 329 330 331 331 332 332 331 330 328 328 328 328 327 326 326 326 326 326 326 326 326 326 327 327 324 323 323
300 300 300 301 301 301 301 301 301 301 302 302 302 302 302 302 303 303 303 303 302 303 303 304 304 305 306 306 306 308 310 312 313 315 314 314 314 314 314 315 316 316 316 313 306 305 313 318 322 326 329 330 329 328 327 326 327 328 329 329 328 329 328 328 330 332 332 331 331 329 329 329 328 327 327 326 326 327 327 327 327 327 327 327 328 325 323 323
300 300 300 300 301 301 301 301 301 301 301 301 301 302 302 302 302 303 303 303 303 303 303 304 304 304 305 306 306 307 309 310 312 314 313 313 314 314 313 313 313 315 317 315 307 307 314 316 319 324 326 328 328 328 328 327 327 327 327 327 328 328 328 327 329 331 331 331 330 330 330 329 328 327 327 327 327 327 327 327 326 328 330 330 329 326 324 323
299 300 300 300 300 300 300 301 301 301 301 301 301 302 302 302 303 303 303 304 303 303 304 304 304 304 305 306 306 307 308 308 308 311 313 314 314 315 315 314 312 312 316 315 308 308 313 313 316 320 321 322 324 326 328 328 328 327 327 327 327 327 328 327 329 330 330 330 330 330 330 329 329 329 328 327 327 327 327 327 327 327 330 331 330 324 323 323
299 299 300 299 300 300 300 300 301 301 301 301 302 302 302 302 302 303 303 303 303 303 303 304 304 304 305 306 306 307 308 307 307 308 310 313 314 315 317 317 314 311 313 313 309 310 311 311 313 315 317 318 319 321 324 328 329 328 327 327 326 326 327 328 328 329 329 330 329 329 329 329 329 329 329 328 328 327 327 327 327 327 326 329 330 326 323 323
298 299 299 299 299 300 300 300 301 301 301 301 301 302 302 302 302 303 303 303 303 304 303 303 304 304 305 306 306 306 307 306 307 308 310 312 313 314 316 316 316 314 313 312 310 311 311 310 311 313 316 317 318 319 321 325 327 328 328 327 326 326 326 326 326 326 328 329 329 329 329 329 329 330 330 329 329 328 327 326 326 327 326 327 329 328 326 324
298 298 299 299 300 300 300 300 300 301 301 301 301 301 302 302 302 302 302 303 303 303 304 303 304 304 304 305 306 306 306 307 309 310 311 312 313 314 315 316 317 316 316 314 312 312 312 311 310 313 318 318 320 322 322 323 324 326 328 327 326 327 327 326 324 326 328 328 329 329 328 328 329 329 330 330 329 328 328 327 326 327 328 326 327 328 329 326
298 298 299 299 300 300 300 300 300 301 301 301 301 300 302 302 302 302 302 302 302 303 303 304 304 304 304 305 306 306 306 308 310 311 312 313 314 314 315 315 316 316 316 316 314 313 312 311 311 316 320 319 319 322 323 323 323 325 326 329 328 327 328 327 324 325 327 328 328 328 328 329 329 329 330 330 329 329 329 329 328 328 328 328 327 327 328 328
298 298 299 299 300 300 300 300 300 300 301 301 300 300 301 302 302 301 302 302 302 302 303 303 303 304 304 305 305 305 305 306 308 310 311 313 314 314 315 315 315 316 316 316 315 314 313 312 314 318 322 323 321 320 322 322 323 325 325 328 329 328 329 327 326 325 326 327 326 328 329 329 328 328 329 330 330 329 330 329 329 329 329 329 329 328 328 329
298 299 299 299 299 300 300 300 301 301 301 302 301 300 301 301 301 302 302 302 302 303 303 303 303 304 304 304 304 304 305 306 307 308 309 312 313 314 314 314 314 314 314 314 315 315 313 312 314 317 321 324 325 323 323 323 322 324 326 327 328 330 329 327 327 326 325 327 326 327 329 327 325 327 328 329 329 329 330 330 329 329 329 329 329 328 329 329
298 299 299 299 299 299 300 300 301 301 302 302 301 301 301 301 301 301 302 302 302 303 303 303 303 303 304 304 304 304 305 306 307 307 307 309 311 313 314 313 313 313 313 314 314 315 314 312 312 316 320 323 324 324 325 324 323 324 326 327 327 328 329 326 327 327 326 327 326 326 328 327 324 325 327 329 329 329 329 330 330 330 329 330 330 329 329 330
298 299 299 299 299 299 300 300 301 301 302 302 302 301 301 300 301 302 302 302 303 303 303 303 303 303 304 305 305 305 306 306 306 306 307 308 309 312 313 313 313 312 313 314 314 315 314 312 311 315 319 321 321 323 324 323 323 324 325 326 326 327 327 326 326 327 327 327 327 326 327 326 324 323 324 327 329 329 328 329 329 330 330 329 329 329 329 329
298 298 299 299 299 299 300 300 301 301 302 302 301 301 300 300 301 302 302 302 302 303 303 303 304 304 304 304 304 305 307 307 307 307 307 307 308 310 312 312 312 313 313 314 315 315 314 312 311 312 317 320 319 322 324 323 322 323 324 324 324 325 325 324 324 325 327 328 328 327 326 326 325 323 322 324 327 329 328 328 329 329 330 330 329 330 330 329
297 298 298 299 299 299 299 299 300 301 302 302 301 301 301 301 302 302 302 303 303 303 303 303 304 303 303 304 304 305 306 307 308 308 309 309 308 309 310 310 311 313 315 315 315 316 314 312 311 310 313 317 318 320 322 322 320 322 323 323 323 322 323 323 322 323 326 327 329 328 328 327 326 325 324 323 324 326 328 328 328 328 329 330 329 329 329 329
297 297 297 298 299 298 298 298 298 300 302 302 302 302 301 302 303 303 303 303 303 303 303 304 303 302 303 304 305 306 306 306 307 308 309 310 310 309 310 310 310 312 314 314 315 315 314 311 312 311 309 312 316 318 319 318 318 320 321 322 322 321 321 321 322 323 324 326 329 329 328 328 327 326 326 325 324 323 326 328 328 328 328 328 329 329 329 329
297 297 297 297 297 296 297 297 298 299 300 302 302 302 302 303 303 303 303 303 303 303 303 304 304 303 304 304 305 306 305 305 307 308 309 310 311 311 311 310 310 311 313 314 314 315 313 311 312 311 308 308 311 316 317 316 316 318 320 321 321 321 320 320 321 324 326 327 328 328 328 328 327 327 326 326 326 323 323 326 328 327 327 327 327 328 328 329
297 296 296 295 295 294 294 295 297 298 301 302 303 303 303 303 303 302 302 302 302 303 303 304 304 304 305 305 306 306 305 306 306 308 309 309 311 311 312 311 312 312 313 313 314 315 314 311 311 311 309 307 308 313 316 317 316 316 318 319 320 320 320 319 320 325 328 329 328 328 328 328 327 327 326 326 326 325 323 324 326 327 326 326 324 325 326 327
296 296 296 295 294 293 293 294 296 299 302 303 303 303 303 303 303 302 302 302 302 302 303 304 304 305 305 305 305 305 305 306 306 306 307 309 310 310 311 312 312 313 313 312 314 315 315 313 312 311 310 309 309 310 313 316 317 317 317 318 319 319 319 319 320 321 326 328 329 328 328 328 327 326 326 326 326 326 325 324 324 325 325 324 323 323 323 324
296 297 296 295 293 292 293 294 295 301 303 302 302 303 303 302 302 302 302 302 302 302 302 303 304 305 305 305 305 306 306 307 306 305 306 308 309 309 310 312 311 312 313 312 313 315 316 314 312 311 311 310 310 310 312 315 317 319 319 319 319 319 319 320 320 320 324 327 327 327 327 327 326 325 325 325 325 326 326 325 325 325 325 324 323 323 323 323
296 296 295 295 293 292 293 293 298 303 301 299 302 303 303 302 302 302 302 303 302 302 302 302 303 305 305 305 305 306 306 306 306 306 306 307 308 309 309 310 311 312 312 312 312 313 315 315 313 313 311 311 311 311 312 314 317 319 320 320 319 320 320 320 320 319 321 324 326 326 327 326 325 325 325 324 325 325 326 326 326 326 326 326 325 325 324 323
296 296 296 295 293 292 291 294 301 302 298 299 303 303 302 302 301 301 302 302 302 302 303 303 304 305 305 305 305 306 306 306 305 306 307 306 307 309 309 310 311 312 312 312 312 313 313 313 314 314 312 312 312 312 312 313 316 317 319 319 319 319 318 319 320 319 320 322 324 326 327 325 323 323 323 323 324 324 325 326 326 326 326 327 326 326 326 325
296 296 295 294 293 293 292 296 299 297 296 301 303 302 302 302 302 301 301 301 301 303 304 304 304 304 304 305 305 306 306 306 305 305 307 306 306 308 309 309 310 311 312 312 313 314 313 313 314 315 314 313 313 312 312 313 314 316 317 318 318 319 319 318 319 319 320 322 322 323 325 324 322 321 321 321 322 322 323 325 325 325 326 326 327 327 327 326
294 294 293 292 295 296 296 296 295 296 300 302 302 301 302 302 301 301 301 301 301 304 304 304 304 303 303 305 305 305 305 305 305 305 307 307 307 308 309 310 310 311 312 312 313 314 314 314 314 314 314 315 314 312 312 312 313 314 315 317 318 318 319 319 319 319 319 321 321 320 322 322 321 320 319 319 320 321 321 322 323 324 325 325 326 327 327 327
292 292 291 293 296 296 297 296 296 298 300 300 300 300 301 301 301 301 301 300 301 304 304 304 305 304 304 305 305 305 305 304 305 306 307 308 307 307 308 309 309 310 311 311 313 315 315 314 315 314 315 315 314 313 313 312 312 313 315 319 318 317 318 318 319 320 319 321 321 320 322 324 322 320 319 318 318 319 318 319 320 322 322 323 325 326 327 327
293 291 291 293 296 296 297 298 298 298 298 299 299 299 301 301 301 301 301 300 301 303 303 303 304 304 305 305 305 305 305 305 305 306 308 309 308 307 308 308 308 309 309 309 311 313 314 314 313 314 315 315 314 314 314 312 311 313 317 320 319 319 319 318 319 320 320 321 321 320 321 323 322 320 320 319 317 317 316 316 317 319 321 322 323 325 325 326
293 291 291 294 296 297 297 297 298 299 300 300 299 300 301 301 301 301 300 300 300 302 304 303 303 303 304 305 305 305 306 305 305 306 308 308 307 307 308 309 309 309 310 310 310 310 311 312 312 313 313 313 314 314 315 314 313 315 319 319 319 320 320 321 321 320 321 321 319 319 319 320 321 319 318 318 318 317 316 316 316 317 319 320 322 323 324 324
293 292 293 295 297 297 297 297 299 300 300 300 300 301 301 301 301 301 300 299 298 302 305 303 303 303 303 304 304 305 305 305 305 306 307 307 307 307 308 308 309 309 309 309 309 310 310 311 312 313 311 311 313 315 314 315 315 316 318 318 318 318 319 320 319 318 320 321 319 318 318 319 319 318 316 317 317 317 316 316 316 317 317 318 320 322 323 323
292 292 295 297 298 298 298 298 298 299 300 300 300 301 301 301 301 301 301 298 298 302 303 303 304 303 303 303 304 304 305 305 305 306 306 307 307 307 307 308 308 307 308 308 308 310 311 311 312 313 313 312 313 314 314 315 317 316 316 317 317 316 318 318 317 317 319 319 318 318 318 319 318 316 316 316 316 317 316 315 316 316 316 317 320 322 322 323
293 294 296 298 299 299 300 299 299 299 300 300 300 301 301 301 301 301 301 299 300 302 302 302 303 303 304 304 303 304 304 304 305 305 306 307 307 307 307 308 307 307 308 309 308 309 310 311 312 313 313 313 313 314 315 316 316 314 314 316 315 315 315 315 315 316 316 316 316 317 318 319 318 316 316 316 315 315 314 314 316 316 316 317 319 320 321 321
293 295 297 299 300 301 301 300 300 300 300 300 301 301 301 300 301 301 300 300 301 301 302 302 302 302 304 304 304 305 305 304 304 304 305 306 306 307 307 307 308 308 308 309 309 310 310 311 312 313 313 312 312 314 315 316 316 314 313 315 315 314 313 312 313 313 313 313 314 316 318 317 316 315 316 315 314 314 314 314 315 317 317 317 318 318 319 321
293 296 299 300 301 301 300 300 300 300 300 300 301 301 301 300 300 300 300 301 301 301 302 302 302 302 303 304 305 305 304 305 305 305 305 305 305 306 306 307 308 308 308 308 308 309 309 310 312 313 313 313 312 313 314 315 316 316 315 315 315 314 312 312 313 313 312 312 313 315 316 315 313 314 315 316 315 313 313 313 314 316 317 316 318 318 318 319
294 297 299 300 301 300 300 300 300 300 300 300 300 300 301 300 300 300 300 301 301 301 301 302 302 302 302 302 304 305 304 303 304 305 305 305 305 305 305 306 307 308 308 308 308 309 309 309 311 313 313 313 313 313 313 314 316 317 315 315 315 314 313 313 314 313 313 313 313 313 314 314 313 313 313 314 315 314 315 314 313 314 315 316 317 318 318 318
295 297 299 300 300 299 299 300 300 300 301 300 300 301 300 300 301 301 300 301 301 301 301 301 301 301 301 301 302 304 303 303 304 304 305 305 305 306 306 306 306 307 308 308 307 308 309 309 309 313 314 313 313 313 313 313 315 316 315 315 314 315 315 314 314 314 314 314 313 312 313 313 314 315 314 312 312 312 315 317 315 314 314 315 317 318 318 318
295 297 299 300 300 299 300 300 300 300 300 300 300 301 301 301 301 301 301 301 301 301 301 301 301 300 301 301 301 302 303 303 303 303 304 304 305 305 305 305 306 307 307 308 307 307 309 308 307 310 313 314 313 313 314 314 314 314 316 316 315 315 315 315 315 316 315 314 313 312 312 311 312 314 314 313 312 311 312 314 316 316 314 315 316 316 317 316
295 297 300 301 299 299 300 300 300 300 300 300 300 300 300 300 301 301 301 301 301 301 301 301 301 301 301 302 302 301 302 302 303 303 303 304 304 305 305 304 306 306 305 306 307 307 308 308 309 310 313 313 313 312 313 315 313 312 314 316 315 315 315 315 315 315 316 315 314 314 312 311 312 312 312 313 313 312 312 312 314 315 314 314 315 315 315 315
295 297 300 301 299 299 300 300 300 300 300 300 300 300 300 300 300 300 301 301 301 301 301 301 301 301 301 302 301 301 301 302 302 302 303 303 304 305 305 304 305 305 305 306 306 307 308 308 308 310 312 313 313 312 313 314 314 312 312 314 315 314 314 314 314 314 315 315 315 314 314 313 312 311 312 313 312 314 314 313 314 315 314 315 315 315 315 315
295 298 300 300 298 299 300 300 300 300 300 300 301 301 300 300 301 301 300 301 301 301 301 301 301 301 301 301 301 301 301 302 302 302 302 303 304 304 304 305 305 306 306 305 306 307 307 308 307 308 310 311 312 313 313 314 314 313 312 313 314 315 315 315 315 315 315 315 314 314 314 313 313 313 313 312 312 314 315 316 316 315 314 315 315 316 316 316
295 298 299 298 298 299 300 300 300 300 300 300 301 301 301 301 301 301 300 300 301 300 301 301 301 301 301 301 302 301 301 302 302 302 302 303 303 303 303 305 305 305 305 304 305 307 307 307 307 307 308 308 309 312 314 313 310 310 312 312 313 314 315 315 315 315 315 315 314 315 315 314 313 315 316 314 315 314 313 314 315 314 315 316 316 316 316 316
295 296 297 298 298 299 300 300 300 300 300 300 301 301 301 301 301 301 300 300 300 300 300 301 301 301 301 301 302 301 301 301 301 302 302 302 303 303 303 303 304 305 305 304 305 306 305 306 306 307 307 308 308 310 312 311 310 310 311 312 312 312 313 314 314 315 316 315 315 316 315 314 314 317 317 316 316 314 313 314 314 315 316 317 317 316 316 317
294 295 296 298 298 299 300 300 300 300 301 300 300 300 300 300 300 300 300 300 300 300 300 300 301 301 301 301 301 301 301 301 301 302 302 302 302 302 303 303 304 305 304 304 304 304 304 305 305 304 305 307 308 309 310 310 310 310 311 312 312 312 312 313 313 314 315 315 315 316 315 315 315 317 317 315 315 314 314 314 313 314 316 316 317 317 317 317
294 296 297 298 298 298 300 300 300 299 300 300 300 299 299 300 300 300 300 300 301 301 300 300 300 301 301 301 301 301 301 301 301 301 301 302 301 301 302 303 304 305 305 304 304 303 304 305 303 302 303 305 307 307 308 307 307 308 309 310 311 312 312 312 313 314 314 314 315 315 315 314 314 315 315 314 314 313 313 313 313 313 314 314 315 317 317 317
294 295 297 298 298 298 299 300 299 299 299 298 299 299 299 300 300 300 301 301 301 301 301 300 301 301 301 301 301 301 302 302 301 301 301 301 301 301 302 303 304 305 305 304 303 303 304 304 303 303 302 303 303 303 303 303 304 306 307 308 309 310 311 312 313 314 314 314 314 314 314 314 314 314 314 314 314 314 314 314 313 312 313 313 314 315 317 316
294 295 296 295 295 296 298 298 298 297 297 297 298 299 298 299 299 299 300 301 301 300 300 300 301 300 301 301 301 301 301 302 301 301 300 300 301 301 301 302 303 303 304 304 303 304 305 304 303 304 303 303 303 303 303 304 305 305 305 306 306 308 310 311 313 314 313 313 313 313 314 314 313 312 312 313 313 314 314 313 312 311 312 313 312 313 315 315
294 294 294 293 293 295 296 296 296 295 296 296 297 298 298 298 298 299 300 300 300 300 300 300 300 300 300 301 301 301 301 301 301 301 300 300 301 301 302 302 302 303 303 305 305 305 305 304 303 303 303 304 304 304 304 305 304 304 304 304 304 305 307 308 310 311 312 313 313 313 314 314 313 313 313 313 312 312 312 312 311 311 312 312 312 312 314 315
292 292 292 292 292 293 293 293 294 294 295 295 296 297 297 298 298 298 298 299 300 300 300 300 300 300 300 301 301 300 300 301 301 301 300 301 301 301 301 302 302 302 303 305 305 304 304 304 303 303 303 303 304 304 304 304 303 303 304 304 304 304 305 305 307 308 309 311 311 311 312 312 312 312 312 312 311 311 311 311 311 311 311 311 312 313 315 315
290 290 290 290 290 291 292 292 294 294 294 295 296 296 297 298 297 296 296 297 298 299 299 300 300 299 300 300 300 300 300 300 300 300 300 301 301 301 301 302 302 302 303 304 303 302 302 304 303 303 303 303 303 304 304 304 303 303 304 304 304 304 304 304 305 305 306 308 308 310 311 311 310 310 311 310 310 310 310 310 311 311 311 311 311 313 315 315
289 289 289 289 290 291 292 292 293 293 294 295 295 295 296 296 295 293 293 294 296 297 298 298 297 297 298 299 299 299 300 300 300 300 300 300 300 300 301 301 301 302 302 303 303 302 302 302 303 303 303 302 302 303 303 304 304 304 304 305 305 305 305 305 304 305 306 306 308 309 310 310 310 310 310 310 310 309 309 310 310 311 311 312 311 312 314 314
289 289 289 289 289 291 291 292 292 293 294 294 294 293 292 292 292 291 292 294 295 296 296 295 294 295 296 297 298 299 299 300 300 300 300 300 300 300 301 301 301 301 301 302 303 303 302 302 303 303 303 302 302 302 302 303 304 303 304 304 305 305 305 305 305 305 306 306 306 307 308 309 309 310 310 310 310 310 310 310 310 311 311 312 312 312 313 313
Wind_Speed
21 21 21 21 22 22 22 21 21 21 21 21 21 22 22 22 22 22 23 23 23 24 24 24 23 23 23 23 24 25 25 27 27 28 30 30 26 26 25 21 18 13 11 13 13 15 14 13 14 14 13 13 14 16 15 16 16 8 3 5 6 6 7 7 6 6 6 4 6 9 13 9 8 9 7 6 5 5 8 8 8 7 6 6 10 12 12 14
21 21 21 21 21 22 22 21 21 21 21 21 21 22 22 22 22 22 23 23 23 23 23 24 23 23 22 22 23 23 25 27 28 32 35 31 27 27 26 22 19 14 14 15 13 14 13 11 11 11 15 16 14 16 14 15 16 9 2 4 7 6 7 10 11 9 9 6 9 10 11 9 11 14 10 7 7 8 7 8 11 11 10 9 11 11 10 12
21 21 21 21 21 22 22 21 21 21 22 22 22 22 22 22 22 22 23 23 23 23 23 23 23 23 22 21 21 21 24 26 30 37 37 33 32 31 28 24 19 14 16 17 14 14 12 11 12 11 14 17 16 17 16 15 15 13 9 6 8 8 10 15 18 14 13 9 8 11 9 7 11 17 12 8 8 10 8 8 13 14 15 14 14 13 10 12
21 21 21 21 21 21 21 22 22 22 22 22 22 22 23 23 23 23 23 23 23 23 23 23 23 22 21 21 19 19 22 23 27 32 29 30 32 29 27 22 18 17 19 19 17 16 12 13 16 12 12 15 18 19 16 16 13 12 13 8 9 11 10 15 21 18 16 15 7 10 10 6 9 13 12 10 7 8 11 14 15 16 19 18 17 17 14 13
21 22 22 22 22 22 21 22 22 22 22 22 22 22 23 23 23 23 23 23 23 23 22 22 23 22 21 20 19 17 15 12 12 14 13 16 18 18 21 20 18 20 22 21 19 19 15 13 15 12 10 11 15 16 16 21 17 9 12 13 15 16 10 14 20 16 13 14 11 5 9 7 8 9 11 11 7 3 8 17 19 17 20 21 18 17 17 16
22 22 22 22 22 22 22 22 22 22 23 23 22 22 22 23 23 23 23 23 23 23 22 22 22 22 21 20 18 16 12 8 5 6 3 3 3 7 13 17 21 22 22 23 22 20 17 15 14 12 9 8 12 12 14 23 20 9 10 16 21 21 14 19 19 13 14 16 15 9 6 9 10 8 11 13 10 4 5 11 16 14 16 20 19 16 17 17
22 22 22 22 23 23 23 22 22 22 23 23 23 23 23 23 23 23 23 23 23 23 22 21 22 21 20 19 20 20 21 25 19 6 3 2 6 5 3 8 18 22 21 23 25 21 16 17 16 15 10 7 10 13 16 21 22 14 9 12 19 23 21 24 17 8 15 16 16 13 8 9 10 8 11 15 14 6 6 8 14 14 14 17 17 14 14 15
22 22 22 22 23 23 22 22 22 22 22 22 23 23 24 24 24 23 23 23 23 22 22 21 21 20 19 19 20 20 25 37 37 23 17 16 11 9 7 4 5 14 22 24 27 24 18 19 20 17 9 9 12 13 17 17 17 15 11 12 16 20 22 24 19 12 17 16 15 12 10 11 10 9 9 14 17 11 6 5 8 11 13 14 14 12 12 13
23 22 23 23 23 23 22 22 22 23 23 23 23 23 23 24 24 24 23 22 22 22 22 21 21 20 18 20 20 18 27 36 37 35 29 24 21 14 9 5 3 6 17 25 27 24 21 20 21 19 11 11 14 14 18 15 12 14 15 16 15 17 20 19 22 22 18 15 12 11 9 12 12 9 8 13 17 12 10 9 8 9 12 13 12 11 12 13
23 23 23 23 22 22 22 22 22 23 24 24 24 23 23 23 24 24 23 22 21 21 21 20 21 20 18 22 18 14 28 31 27 30 28 26 26 17 9 6 5 5 11 21 25 24 23 20 18 19 14 12 12 14 18 15 12 16 18 19 18 18 20 19 20 23 19 15 14 11 8 12 15 9 7 13 15 13 11 11 11 11 11 14 13 12 12 11
22 23 22 22 21 22 22 22 23 24 24 25 25 24 23 23 24 24 23 22 21 20 20 19 20 21 20 22 19 17 27 25 18 20 22 25 24 19 14 7 4 6 9 14 20 23 23 19 15 14 11 9 9 11 15 18 17 18 19 17 18 18 19 21 18 18 16 10 16 15 10 13 16 11 8 13 14 16 16 13 13 13 12 13 14 14 13 13
20 21 21 21 21 21 22 23 23 24 25 25 25 25 23 23 23 23 23 21 21 20 20 20 19 22 22 22 27 30 29 20 12 11 14 20 22 16 14 11 8 6 8 10 14 19 20 20 17 13 10 7 6 7 9 17 19 18 17 12 11 13 15 21 20 17 14 9 14 14 10 13 13 11 14 17 17 18 21 19 16 15 15 15 15 15 16 15
20 20 20 20 20 21 22 23 23 24 25 25 25 24 22 22 22 22 21 19 20 19 20 20 19 22 19 21 32 35 30 24 16 14 12 12 17 17 13 13 15 12 10 9 10 13 17 21 17 14 15 9 4 3 4 9 14 13 12 8 7 8 12 18 19 19 15 12 16 11 7 11 9 13 19 20 21 20 20 21 20 19 18 17 17 17 18 17
19 20 20 21 21 20 21 23 23 24 24 24 24 23 22 21 21 21 20 19 18 17 17 18 19 20 17 23 34 32 29 26 20 23 21 12 11 16 16 14 16 17 15 12 10 9 12 18 17 15 16 15 8 5 6 5 9 8 7 6 6 7 9 13 16 17 14 13 20 14 7 10 7 14 24 23 22 22 20 18 19 20 19 19 19 19 19 19
18 19 20 21 21 21 22 23 24 24 24 24 23 22 21 20 20 20 18 17 15 14 16 16 17 17 15 23 30 25 24 24 22 25 25 19 15 14 14 13 12 14 18 17 14 11 10 12 16 14 12 15 13 7 4 3 5 5 7 7 7 8 8 10 14 16 14 12 20 16 8 7 7 11 24 28 26 25 23 20 19 19 20 20 21 21 21 20
17 18 19 21 21 21 22 23 24 24 25 24 22 21 21 20 19 19 17 16 14 13 13 12 13 12 10 16 19 15 15 19 25 25 22 22 24 20 14 11 10 9 14 18 16 13 12 9 12 13 10 9 9 5 2 4 4 5 7 7 9 10 8 7 11 16 17 12 16 18 9 4 6 11 21 27 29 30 27 25 24 22 22 22 21 21 22 20
18 18 19 20 21 21 22 23 24 25 24 23 22 20 19 20 19 17 15 13 13 13 12 10 9 8 10 15 17 14 12 14 17 20 22 22 25 27 21 16 13 8 10 16 17 14 10 8 9 9 9 6 5 6 5 6 7 6 7 8 9 11 9 8 9 13 17 15 14 17 12 7 5 9 19 24 28 30 26 25 27 25 24 24 22 22 22 22
18 18 19 20 20 21 21 22 24 24 22 22 20 19 19 19 17 15 13 12 12 10 10 11 8 4 9 14 13 13 14 14 13 14 19 19 21 26 26 24 18 10 10 14 17 16 10 9 8 5 6 6 6 8 8 10 11 9 9 8 8 10 11 11 9 9 15 17 16 14 14 13 9 9 15 20 22 23 23 24 26 27 26 25 25 24 23 23
19 19 19 20 20 21 21 22 23 23 22 21 19 19 19 16 13 11 9 9 8 6 5 8 11 6 5 7 8 11 13 14 14 13 16 18 19 22 24 26 22 15 10 8 12 16 12 7 7 6 7 9 11 12 13 12 12 12 11 10 10 10 10 11 8 8 13 14 15 15 12 12 13 12 14 15 17 18 19 23 24 26 26 25 25 26 25 24
19 20 20 20 21 22 22 22 22 22 22 19 19 18 16 13 8 6 10 12 13 13 14 13 13 15 14 12 11 13 14 13 13 14 15 19 20 20 20 19 17 14 9 5 8 15 14 6 6 8 10 14 16 16 15 12 11 12 12 11 11 10 9 10 8 7 10 9 11 15 14 13 14 14 13 18 19 16 15 18 20 23 23 24 24 24 26 26
20 21 21 22 22 22 23 22 21 21 19 16 16 15 12 11 6 6 12 16 17 18 22 22 18 20 21 18 14 12 13 12 12 14 14 18 20 18 17 16 10 8 8 9 8 12 14 7 8 12 13 14 16 15 14 13 14 14 10 8 9 10 9 9 9 7 9 8 8 11 14 14 14 12 13 18 17 15 14 14 17 21 22 24 25 25 27 27
21 22 22 23 22 22 23 21 20 19 16 13 14 13 12 12 10 11 11 12 18 21 22 23 22 23 24 21 17 15 12 7 10 15 14 13 15 14 15 15 9 6 8 10 8 7 10 8 12 15 13 13 13 15 16 15 15 13 8 7 8 8 7 7 10 8 7 6 6 9 12 12 13 13 13 14 14 17 22 20 20 23 24 25 25 25 26 26
21 21 22 23 23 23 22 21 18 14 12 14 15 13 13 13 12 14 11 10 17 21 20 22 23 23 23 21 16 14 11 7 8 14 15 10 10 14 13 11 9 8 8 9 7 5 6 9 14 14 12 13 14 14 16 15 12 10 8 8 7 6 6 5 7 8 7 6 4 5 7 7 9 11 12 15 18 19 25 28 26 26 26 27 27 26 25 27
22 22 23 24 23 22 21 21 15 9 13 16 13 11 12 13 11 12 10 8 10 13 17 21 22 21 20 16 13 14 14 12 10 9 10 11 9 10 10 9 10 9 9 11 11 8 6 7 11 13 13 15 14 13 13 11 9 10 11 9 7 6 7 4 4 6 6 7 5 2 4 6 7 10 9 13 18 18 22 27 27 28 28 27 28 29 28 28
22 22 22 24 23 22 23 18 9 10 17 15 9 10 13 13 10 10 8 6 7 7 8 11 15 15 16 14 12 13 11 13 17 12 9 11 11 6 5 9 9 7 10 13 11 9 9 11 9 10 14 15 13 11 12 10 8 10 12 12 10 7 8 7 5 4 5 7 6 6 5 7 7 11 10 7 10 13 17 20 22 26 28 26 27 29 31 31
22 22 22 24 24 25 23 14 9 16 17 10 9 13 14 12 9 8 5 4 5 2 2 1 6 6 6 10 13 12 6 11 21 20 15 14 14 8 3 5 5 6 9 9 7 5 6 11 9 10 13 14 12 11 12 12 8 7 9 12 14 11 9 9 7 5 4 5 5 6 7 7 5 9 11 9 10 13 14 15 18 24 26 27 27 26 28 29
22 23 24 25 24 25 22 15 15 17 12 9 14 15 13 11 7 5 3 3 3 2 2 3 2 2 3 4 12 11 1 4 11 18 20 17 14 11 5 2 2 5 5 3 4 3 4 9 10 11 12 9 10 10 11 12 9 7 6 9 13 14 13 10 7 6 4 2 4 5 6 7 6 7 9 13 15 17 17 16 16 21 25 27 28 27 26 27
24 25 25 25 24 22 17 15 17 15 12 13 16 15 12 8 5 4 2 3 3 2 2 3 2 3 3 3 13 13 5 7 2 8 15 17 14 10 6 7 5 4 3 3 5 5 6 10 12 14 11 7 9 9 10 12 10 7 5 4 7 12 13 11 6 5 4 2 5 6 4 5 8 6 7 11 15 17 19 19 16 18 25 29 29 30 30 31
25 25 24 25 25 19 11 11 14 15 13 12 13 14 9 5 3 2 1 3 2 2 3 3 4 3 1 3 10 15 14 10 4 1 6 14 14 9 4 8 9 6 5 5 6 5 3 4 5 8 9 7 10 11 10 12 10 7 3 2 4 4 6 7 6 4 4 5 7 8 6 6 8 6 7 9 12 13 13 14 15 18 26 30 31 33 34 34
25 25 24 24 23 16 11 9 10 11 10 8 10 10 5 2 2 1 3 2 2 1 2 2 5 5 1 1 4 10 11 10 6 2 4 6 10 10 5 4 5 3 5 4 5 8 9 8 5 1 6 4 5 8 10 10 10 6 4 2 3 1 2 1 2 1 4 9 10 10 9 8 9 7 8 9 10 10 10 10 12 16 24 29 32 35 36 35
24 23 21 20 17 13 12 9 5 7 8 7 7 5 2 0 1 2 3 0 1 2 1 2 4 5 4 4 4 5 6 7 6 3 2 1 4 7 4 2 2 0 3 4 5 8 9 8 4 2 6 1 4 4 9 9 8 6 4 4 5 2 3 2 2 1 3 8 9 12 13 12 12 9 7 8 10 11 11 12 13 12 17 26 31 34 37 38
22 20 16 14 13 9 10 8 4 6 5 4 4 1 0 1 2 3 2 2 2 1 2 4 3 3 5 7 5 4 4 5 6 4 4 3 3 4 4 4 3 1 3 4 5 6 6 7 6 6 7 6 1 1 5 6 4 6 5 6 6 5 2 3 4 3 4 6 6 10 12 11 14 12 6 7 8 10 10 10 14 15 17 23 28 31 35 37
20 16 11 10 10 8 9 8 3 3 3 2 0 1 1 2 2 1 2 2 2 2 3 5 5 3 2 3 3 1 2 2 5 4 1 2 4 4 6 7 5 3 3 3 4 4 4 7 9 8 5 9 7 2 3 3 3 8 8 7 8 7 6 8 7 5 7 8 7 9 9 8 11 10 9 13 12 10 9 7 9 16 20 22 26 29 31 32
17 14 8 8 9 9 10 8 3 3 2 2 2 1 2 3 2 0 1 2 2 4 4 3 6 5 2 3 0 2 1 1 1 4 2 1 4 4 5 7 8 6 2 2 4 3 4 6 7 9 6 10 12 10 8 4 4 8 9 7 8 7 7 7 7 7 8 8 7 8 7 6 8 5 7 14 17 18 22 20 14 10 12 15 19 24 25 26
15 10 6 8 8 9 10 7 2 2 3 3 2 2 2 2 3 2 2 3 3 5 6 5 6 5 3 3 2 3 1 1 1 1 3 2 3 3 4 5 8 7 4 3 3 2 5 7 3 10 11 12 12 13 11 5 4 5 5 6 8 7 7 6 6 6 6 6 5 6 4 4 7 6 3 6 10 18 27 27 19 12 11 12 15 21 23 24
12 6 5 4 6 8 9 5 2 3 5 3 2 3 3 3 2 2 3 4 4 6 8 8 5 3 3 2 1 3 2 2 1 1 2 2 3 4 5 5 5 9 7 4 3 2 4 5 2 7 10 11 13 13 14 11 4 1 4 7 7 6 6 7 7 4 5 7 5 6 7 7 8 10 9 10 7 8 13 15 16 17 18 16 17 23 24 24
12 8 4 2 5 9 8 3 2 5 5 2 3 2 1 2 1 2 5 7 7 7 6 5 3 2 3 3 3 3 2 1 2 2 2 2 2 4 4 6 7 9 11 8 5 3 4 7 5 4 6 9 14 15 15 16 11 4 4 7 6 4 1 2 5 5 6 8 5 8 11 10 8 7 8 13 14 11 10 8 9 14 18 19 20 24 25 26
13 9 4 3 7 10 7 2 4 5 4 2 4 4 1 0 3 4 7 8 7 6 3 2 2 3 3 3 4 5 2 1 2 2 2 2 0 1 1 4 6 7 11 11 7 2 2 7 9 6 7 6 6 7 9 14 15 6 2 5 4 4 3 3 4 5 7 7 6 9 12 10 10 6 4 11 16 17 17 12 9 11 15 19 22 24 25 26
12 8 3 3 8 9 4 3 5 5 3 1 4 4 0 1 4 6 8 8 6 5 3 2 1 2 3 3 4 6 4 3 2 2 1 0 1 3 1 1 3 7 6 3 4 4 1 3 6 4 5 2 0 1 3 8 8 1 2 2 2 1 4 5 4 4 6 7 7 8 10 9 9 8 6 9 12 15 16 15 13 13 15 21 25 26 26 30
10 6 2 5 9 8 2 4 5 4 2 2 3 2 1 1 4 6 8 7 3 3 3 3 2 2 3 3 3 4 3 4 3 1 1 0 2 6 4 0 2 5 4 1 2 5 2 3 6 3 1 0 1 3 5 8 7 3 2 4 4 2 2 2 3 4 5 6 6 7 9 8 5 6 9 12 13 11 11 12 13 13 17 25 29 29 31 35
8 3 2 7 9 5 1 4 3 2 2 3 3 2 1 3 3 6 9 7 4 4 4 5 5 4 4 3 4 3 2 3 3 2 2 2 2 3 2 1 1 2 1 1 1 2 2 3 6 6 2 3 5 5 5 5 5 5 5 6 8 7 5 4 4 4 4 6 6 6 9 7 3 3 7 10 12 10 10 11 10 13 22 27 29 31 35 37
6 2 2 6 6 1 2 2 2 2 3 3 3 2 3 4 3 4 7 6 5 5 5 4 5 5 4 4 3 3 2 3 3 3 2 4 5 4 5 4 2 3 2 4 4 1 2 2 5 7 6 7 8 5 5 4 2 4 4 4 6 7 7 8 7 4 5 6 6 7 9 6 3 3 4 4 4 3 6 11 9 13 22 25 25 29 33 34
6 7 4 4 4 2 2 2 3 3 3 3 2 3 5 4 3 4 5 4 4 4 3 3 3 4 4 3 3 3 2 3 5 5 4 5 5 7 12 13 8 2 2 3 4 1 3 1 3 5 6 7 8 4 4 4 2 3 3 2 4 6 8 10 8 5 5 6 7 7 9 7 4 4 5 3 2 5 3 3 6 13 20 23 25 29 31 30
9 11 5 3 3 2 2 2 3 3 3 3 2 5 7 5 4 4 4 3 3 2 3 4 4 3 3 3 3 2 2 2 4 5 6 5 5 8 11 11 6 1 2 3 4 3 1 2 2 3 5 5 5 3 2 1 1 4 5 6 6 7 9 9 5 5 6 6 7 8 7 6 4 5 6 4 3 4 7 6 3 6 14 19 22 26 29 28
10 8 3 0 2 2 2 3 4 4 5 6 5 6 7 5 5 8 8 7 8 6 3 5 7 6 5 4 4 3 3 3 3 4 6 5 5 8 9 9 7 4 6 9 3 4 1 2 2 1 5 5 4 3 2 3 3 4 5 8 10 11 12 9 5 6 6 6 8 8 6 5 5 6 9 7 6 5 2 4 3 0 6 11 14 19 24 26
7 3 1 2 2 3 5 4 4 3 4 6 5 5 5 4 6 9 8 7 9 9 6 6 8 8 6 5 4 4 5 6 5 5 6 6 5 5 7 11 10 7 8 7 3 3 1 2 3 5 7 7 8 9 10 9 6 7 9 9 10 12 15 11 7 8 7 6 10 10 7 9 10 10 9 7 7 8 5 3 5 6 6 7 9 13 18 21
4 2 3 3 4 4 4 0 6 5 5 6 4 3 6 7 7 7 4 4 6 6 4 5 5 5 5 5 5 4 4 5 6 7 9 9 8 8 12 15 13 14 13 7 9 6 1 4 7 8 10 12 12 13 14 12 9 11 13 12 11 10 11 12 11 10 7 7 10 10 9 12 13 13 12 9 7 8 7 7 9 12 15 16 16 16 18 21
3 2 3 2 2 2 1 3 8 7 7 7 4 4 7 8 7 6 3 4 6 4 1 4 5 6 7 7 5 5 4 3 5 7 7 7 7 7 9 11 12 16 14 7 9 6 2 5 8 8 11 14 12 12 13 11 11 12 13 14 13 12 11 12 13 13 11 10 10 9 11 13 10 11 12 10 9 9 8 9 9 12 17 21 25 25 23 23
4 4 3 3 3 4 7 10 11 9 6 6 5 5 6 8 7 7 5 3 4 3 3 5 6 7 9 8 6 5 5 5 6 5 4 6 7 5 6 7 9 13 10 6 5 4 3 5 8 8 10 13 12 13 13 12 12 13 14 15 14 13 13 13 13 14 14 14 14 15 19 18 12 11 14 15 18 20 21 22 21 18 17 18 23 26 25 25
4 4 5 6 6 8 10 10 9 7 5 5 5 5 7 7 6 7 7 6 6 4 5 7 8 10 10 9 7 6 7 7 9 8 7 7 7 5 4 5 4 5 3 1 3 2 3 5 6 4 6 10 11 12 12 12 13 14 15 14 13 13 13 12 12 11 12 13 13 16 20 17 12 13 17 22 26 27 25 25 25 24 21 18 16 19 25 27
4 4 5 5 5 6 7 6 5 5 4 4 3 4 4 5 8 10 9 10 10 7 5 8 12 12 10 10 9 9 10 10 12 14 12 11 11 10 7 5 3 5 3 2 2 2 4 4 3 1 4 9 9 10 12 11 11 13 13 13 13 12 10 10 10 10 11 12 12 14 15 12 10 12 15 19 22 21 20 22 25 26 23 19 16 16 22 26
5 5 3 3 3 4 4 4 4 4 3 2 4 6 5 7 9 9 7 8 9 11 12 14 13 11 10 12 13 14 16 17 18 21 20 19 21 20 17 14 12 9 6 4 3 3 4 3 2 2 4 8 11 11 10 8 7 8 10 11 14 14 13 13 12 12 13 12 11 11 10 10 12 13 14 16 18 17 17 21 25 26 26 25 24 23 24 26
Wind_Direction
328 326 325 324 324 323 321 319 317 315 312 310 308 308 304 299 295 291 289 287 287 287 285 285 284 282 279 275 274 275 279 281 282 279 269 265 268 273 276 273 263 254 256 257 248 242 236 233 236 231 225 225 229 227 229 231 226 232 264 236 236 233 229 245 244 227 236 183 148 166 173 178 159 167 182 159 173 175 151 159 161 147 155 157 147 162 172 169
327 326 323 322 321 320 321 319 316 314 313 310 309 308 306 303 297 292 289 286 286 285 284 284 282 282 281 277 274 276 278 279 283 278 267 264 268 270 273 275 267 253 247 247 239 233 233 238 238 234 224 221 222 217 219 216 206 199 210 253 236 236 239 246 250 240 243 199 154 162 185 202 172 166 175 171 186 190 167 172 176 153 156 175 165 172 176 172
327 325 323 321 320 319 319 318 316 313 311 311 308 307 306 305 301 296 289 286 285 284 284 282 281 281 279 278 276 275 278 282 285 277 270 267 267 267 271 275 266 247 240 240 233 225 233 244 235 238 229 222 220 213 212 206 195 186 195 241 235 245 255 252 257 253 260 246 166 145 174 204 167 160 170 186 188 187 199 190 181 173 172 182 183 188 184 177
328 325 322 321 319 318 318 316 314 312 311 310 308 307 305 304 304 300 293 287 284 282 282 281 281 279 277 278 275 273 280 290 287 277 276 272 268 268 268 267 256 243 237 235 230 219 226 241 231 239 241 224 217 217 215 204 198 189 196 222 231 245 256 253 259 257 265 266 226 138 151 192 157 157 170 187 198 185 202 201 192 187 185 191 193 195 194 189
329 326 322 320 318 317 317 316 314 312 310 307 307 306 305 304 303 301 298 290 284 281 280 280 280 277 276 274 272 271 277 295 282 262 271 275 270 263 257 251 240 240 237 229 227 218 216 226 227 240 247 227 214 217 221 210 206 207 210 216 226 241 256 261 264 267 283 291 272 172 147 190 168 169 182 190 213 180 199 207 200 194 190 195 196 194 198 198
329 327 324 322 319 317 316 315 314 312 309 307 307 306 304 303 300 300 299 293 285 281 279 279 277 275 274 271 269 262 249 250 206 145 95 12 331 258 249 243 233 235 233 225 221 219 218 218 222 234 234 225 219 217 219 213 209 219 225 216 223 232 245 260 267 281 290 304 288 245 183 188 172 180 200 207 218 145 126 184 180 177 182 190 191 189 196 202
331 329 326 323 320 319 317 315 313 312 311 309 308 307 305 302 300 298 297 294 286 280 278 276 275 272 271 270 265 256 247 243 226 168 78 27 23 8 313 257 236 227 220 217 215 212 215 216 217 224 224 224 225 222 221 218 215 221 229 220 225 227 231 245 257 264 249 270 282 260 246 213 182 186 197 209 220 173 115 138 139 140 156 177 186 186 194 204
331 331 328 325 322 320 318 316 314 313 312 311 309 308 306 303 300 297 295 295 287 280 276 273 271 267 267 267 262 257 252 245 236 239 262 267 287 314 326 318 249 228 219 212 209 205 208 212 213 215 223 230 225 224 223 223 224 225 229 227 230 232 232 238 244 232 215 238 275 273 270 254 220 211 204 207 216 204 186 180 146 143 150 168 189 190 191 200
330 330 330 329 325 321 318 318 316 314 312 310 309 307 307 304 300 297 293 292 288 280 274 272 271 264 260 260 259 257 251 248 245 249 259 264 268 280 300 313 340 261 229 217 209 206 210 215 214 212 222 240 235 231 223 222 225 222 228 231 233 238 237 235 234 231 212 210 252 271 266 265 251 233 239 230 218 205 193 197 199 185 170 172 187 196 192 199
331 330 331 331 328 324 320 320 318 316 314 312 310 307 307 304 301 298 293 291 287 279 272 268 267 264 259 254 255 257 252 253 255 253 253 261 263 261 275 292 285 254 226 221 213 211 218 219 214 217 237 255 250 242 228 225 226 220 228 235 236 237 242 242 235 236 231 204 212 246 250 249 250 235 240 238 221 210 196 179 190 203 194 186 192 201 203 206
332 332 333 332 332 328 324 323 320 318 316 315 313 309 308 306 302 300 297 292 287 280 271 264 263 262 260 255 248 248 253 255 259 255 248 250 252 248 250 256 239 222 223 227 221 219 223 224 225 231 244 251 253 263 249 241 239 228 227 237 239 237 244 251 247 238 241 217 199 221 247 240 239 233 225 231 223 217 215 197 187 197 201 199 200 202 208 212
334 334 334 334 334 331 328 326 323 320 318 316 315 311 310 307 304 303 301 295 289 283 272 265 261 258 262 261 248 244 248 248 246 256 250 241 238 241 246 234 216 222 230 236 234 230 226 225 239 251 242 235 240 264 269 252 248 237 226 234 241 238 242 244 246 234 227 229 210 211 244 240 227 226 224 225 225 223 224 219 206 203 202 203 205 203 210 213
337 336 336 335 334 332 330 329 327 324 320 317 316 313 310 306 304 303 299 295 291 284 273 267 261 260 265 263 253 249 249 249 245 249 252 244 235 234 236 227 222 218 215 231 241 242 233 226 239 259 251 253 241 243 289 256 246 238 225 230 234 237 241 232 236 237 222 217 216 206 234 239 219 217 223 223 222 228 233 225 214 211 207 206 207 205 209 212
338 337 337 336 333 333 333 332 330 327 322 318 315 312 308 304 302 301 297 293 289 282 274 266 262 263 266 264 261 258 255 256 254 248 246 244 240 237 238 237 235 224 214 218 224 236 243 232 237 256 255 249 252 294 310 257 233 225 217 225 225 230 237 223 222 231 227 207 206 210 237 239 221 207 213 218 217 226 240 232 220 215 210 210 209 207 208 211
339 337 337 336 334 334 334 334 333 329 323 318 314 311 307 304 304 301 297 291 286 280 271 265 263 262 266 272 272 269 264 258 249 246 243 239 241 244 242 239 243 231 219 221 226 237 248 236 233 245 257 246 245 280 305 242 230 209 209 215 215 229 234 220 213 217 224 205 197 211 241 234 232 216 211 212 208 216 231 230 225 221 216 214 212 211 208 209
338 338 337 338 336 334 333 334 334 331 326 320 316 315 311 309 307 302 298 293 286 279 271 270 268 259 262 276 276 273 273 260 251 249 244 236 236 239 239 238 251 242 220 223 226 237 247 235 225 233 253 250 232 235 222 218 223 203 216 219 208 220 229 221 214 209 215 211 197 211 231 217 226 229 221 214 203 207 219 222 220 219 218 217 214 214 212 210
336 336 336 336 335 332 332 332 334 334 330 326 321 317 317 314 308 304 301 294 284 276 270 267 265 256 251 263 270 270 272 269 259 250 243 238 235 236 235 237 252 254 226 221 216 220 230 218 212 224 239 246 218 205 204 204 205 199 211 225 223 219 218 221 218 204 207 212 207 211 221 231 243 233 229 224 210 205 210 219 222 218 217 218 217 216 216 214
332 332 332 333 332 330 329 329 333 336 332 329 324 318 322 320 311 304 299 295 289 279 268 252 243 268 257 251 262 270 267 265 263 249 236 235 235 234 234 238 248 250 230 220 208 202 197 194 201 209 215 227 223 204 204 202 196 198 203 214 230 225 220 220 216 199 200 209 213 214 217 224 240 253 245 237 224 214 206 210 222 223 219 218 218 219 218 217
330 329 326 327 329 327 326 325 331 337 332 328 328 323 327 330 319 312 306 294 274 258 266 232 205 215 264 258 277 288 276 260 257 250 230 223 227 230 233 237 241 243 237 216 197 189 177 175 199 210 207 208 213 208 209 208 197 198 204 212 219 224 231 227 219 204 202 208 211 216 222 216 217 233 253 250 241 239 219 206 215 221 221 220 219 220 220 221
326 324 322 321 323 324 325 325 328 336 333 330 333 333 338 344 334 334 332 301 268 258 271 263 230 235 257 274 288 298 293 275 258 248 232 221 216 217 222 222 225 237 240 221 195 182 176 179 196 210 214 207 211 216 217 219 217 213 209 215 218 222 233 229 229 213 192 205 213 213 223 223 214 213 228 239 244 251 229 208 213 215 217 221 222 220 220 223
321 320 318 314 316 321 323 325 328 334 337 335 338 338 340 347 342 331 331 307 283 271 267 270 263 253 259 270 279 290 295 290 266 252 245 227 211 203 201 195 200 223 226 238 233 184 182 197 200 208 220 217 214 221 228 229 229 231 222 220 221 221 230 223 226 214 178 199 219 210 219 226 224 216 215 223 231 241 231 213 215 217 217 222 224 223 221 223
324 321 318 312 311 317 323 330 332 335 341 342 340 336 327 329 326 317 320 296 286 280 265 264 265 258 260 264 269 277 279 281 271 269 272 247 220 208 190 181 196 210 202 235 252 195 192 208 202 203 213 223 223 218 226 232 230 234 230 230 230 216 223 223 224 222 185 194 215 211 222 227 225 226 224 222 220 225 229 226 221 219 221 224 225 225 223 223
326 321 319 315 310 314 324 334 336 336 342 340 334 329 321 317 317 316 310 283 286 283 266 255 249 249 253 255 256 255 248 245 262 270 271 263 236 225 208 180 193 211 197 210 230 210 200 207 204 204 204 214 227 222 220 228 233 236 226 231 236 211 215 218 215 219 189 178 201 215 236 237 226 228 225 229 232 225 224 229 229 225 222 224 226 227 226 224
326 322 320 318 315 316 324 336 341 330 327 333 331 323 322 321 319 320 307 275 276 279 268 254 242 241 245 247 244 231 231 241 246 249 249 244 232 231 232 211 198 211 212 207 217 233 246 231 209 207 208 209 221 225 222 224 229 233 230 232 237 218 221 223 214 225 204 194 188 170 267 251 224 233 227 224 233 230 223 227 232 231 229 227 224 224 227 226
328 327 324 321 319 315 320 334 343 313 319 332 332 321 328 331 330 334 324 278 265 277 278 252 232 240 245 237 227 219 227 243 238 229 227 229 224 222 248 233 214 215 219 210 212 228 250 259 241 218 215 211 215 221 223 224 225 230 229 232 243 240 229 230 236 238 228 223 186 154 243 251 205 224 237 225 233 234 224 223 227 229 231 231 226 219 220 223
326 326 324 323 324 324 323 327 320 316 327 338 316 314 325 334 338 345 337 275 272 297 43 250 223 240 249 219 210 209 228 256 242 229 225 228 222 212 234 245 230 230 222 213 219 225 233 241 245 243 230 216 214 219 218 220 230 234 217 217 235 253 256 240 235 230 222 231 198 172 223 251 212 212 223 222 236 243 233 227 223 222 225 228 228 222 217 218
315 318 321 326 331 332 323 310 313 322 328 314 306 310 318 330 342 347 329 260 284 327 42 4 273 315 3 195 191 187 183 303 239 219 215 218 211 198 209 251 246 250 232 198 221 208 197 214 220 242 249 231 218 218 210 211 225 233 220 210 215 230 249 248 240 241 238 246 246 219 218 248 248 220 213 212 221 234 235 234 228 222 224 224 225 224 220 218
313 312 319 327 329 329 319 306 311 314 305 296 302 307 314 332 342 337 319 269 310 358 8 349 306 313 333 180 181 198 274 345 288 217 212 210 200 179 197 233 234 270 267 221 234 204 184 207 211 221 237 240 231 226 205 207 225 228 228 259 223 214 230 242 247 256 265 271 250 230 199 242 251 221 213 219 220 226 226 228 230 226 226 226 224 224 224 223
319 315 322 328 325 327 326 305 300 306 313 304 299 306 318 350 350 326 268 279 336 18 2 352 326 302 245 167 187 220 264 297 300 272 188 199 201 186 199 228 226 256 262 236 251 252 231 248 236 219 224 230 238 240 216 205 222 222 180 351 307 245 227 232 239 248 259 252 237 219 199 233 258 221 204 222 227 229 225 222 227 225 225 226 223 223 225 227
322 323 329 328 325 328 326 315 308 311 318 300 294 305 317 344 339 296 252 276 17 332 303 9 351 339 275 198 221 229 250 271 270 122 138 192 212 217 219 206 202 245 262 249 254 265 282 305 331 247 215 237 266 261 250 227 217 205 130 133 260 313 54 312 287 240 236 240 230 220 213 230 256 231 204 218 220 221 226 223 225 223 222 222 220 220 223 226
328 330 331 326 326 327 318 324 319 298 299 295 301 311 310 293 254 271 263 247 48 295 291 34 359 352 330 310 289 245 247 264 252 166 151 246 220 224 226 182 132 75 270 274 264 258 262 270 290 210 191 198 354 298 280 271 235 200 145 176 211 182 65 15 330 130 219 234 220 214 217 227 247 235 199 217 217 211 220 223 225 225 219 217 215 215 219 224
331 332 331 329 338 338 321 323 286 270 299 313 317 319 209 211 232 244 266 341 349 305 20 15 346 10 345 320 309 293 306 286 260 226 209 227 214 208 213 201 165 181 244 246 246 246 244 234 231 222 187 166 123 326 283 293 273 223 188 176 197 196 180 214 219 215 231 234 214 210 212 222 247 248 219 222 223 211 216 219 222 221 221 219 212 211 216 220
336 334 334 343 353 352 338 338 302 261 297 299 55 93 253 266 259 200 240 306 332 298 342 348 324 341 353 304 299 305 320 303 290 288 236 222 245 220 213 217 205 229 252 233 240 245 253 233 210 218 205 165 160 164 232 239 227 217 203 182 187 192 204 215 216 222 232 233 217 202 203 221 251 250 219 227 239 238 245 260 243 221 215 217 212 210 212 210
340 336 350 12 359 347 343 342 317 265 266 168 128 126 254 258 269 142 277 304 315 301 316 339 320 313 256 244 239 108 206 228 317 329 342 271 259 236 219 225 220 236 275 258 255 234 248 253 196 194 193 163 175 196 204 221 232 219 212 200 196 193 202 212 212 216 229 243 221 194 189 205 234 228 189 215 229 236 248 259 265 242 214 214 211 205 202 198
344 345 22 30 352 337 342 339 307 233 188 154 161 233 229 249 286 318 349 347 333 324 330 319 300 294 272 246 173 115 20 313 82 338 292 253 253 256 244 223 201 207 223 230 246 214 239 266 198 192 192 166 180 199 192 206 261 235 227 220 207 201 207 221 222 207 219 248 223 196 213 227 248 269 246 220 209 213 231 237 234 224 215 220 208 196 195 196
349 6 41 20 327 328 337 330 273 185 177 180 217 240 243 259 294 320 337 354 340 329 332 319 301 294 313 318 96 94 75 296 338 339 261 252 248 241 251 264 214 198 204 214 240 228 234 263 208 197 208 186 187 190 179 186 209 233 227 227 220 214 215 231 235 199 203 240 213 191 229 242 260 268 247 245 246 213 220 221 211 206 206 211 202 193 198 202
357 17 31 354 317 328 330 310 209 176 169 193 240 254 256 262 302 323 328 342 332 323 334 328 333 360 332 327 360 45 93 250 339 360 310 315 258 206 221 270 255 213 205 212 246 257 238 267 265 209 229 218 202 197 190 188 185 169 205 215 227 249 253 239 243 216 212 238 219 203 225 228 235 245 213 222 241 244 236 221 208 205 201 200 197 193 197 203
356 7 10 325 324 333 326 260 190 175 164 195 257 272 243 258 340 341 337 339 323 317 333 303 318 10 358 340 338 355 25 25 33 31 309 318 284 138 148 265 265 245 224 214 230 251 198 267 273 222 216 241 220 211 211 200 196 197 212 197 202 239 223 191 223 222 216 232 232 221 230 231 227 230 195 205 221 229 232 227 216 210 201 196 197 198 201 208
354 359 357 313 326 337 324 214 173 162 170 228 258 272 279 296 311 324 337 344 328 311 311 294 326 11 355 350 330 333 345 329 355 21 315 309 320 317 354 162 289 311 304 244 243 270 188 234 266 221 182 221 20 148 224 220 212 258 338 205 156 229 230 209 211 222 219 228 239 230 229 234 233 236 232 224 221 220 223 222 219 216 202 196 200 204 208 216
2 2 358 322 321 324 304 176 158 155 200 258 264 275 38 302 288 310 327 335 324 295 300 319 334 320 321 338 315 311 329 328 331 351 301 100 307 304 314 119 274 310 340 35 243 265 247 215 246 260 64 327 217 169 204 222 217 222 240 205 182 189 253 256 228 233 232 226 230 235 236 236 228 224 229 235 235 224 212 213 216 212 200 199 202 204 208 218
7 360 341 339 327 310 188 152 158 198 229 253 269 266 304 296 288 304 306 302 284 257 261 288 291 283 289 295 297 297 298 306 296 252 247 203 199 284 314 145 277 324 329 248 254 239 222 235 245 250 249 234 228 201 201 221 218 221 227 213 204 203 212 238 233 222 233 235 228 237 249 243 217 230 237 234 237 231 214 208 211 208 202 201 200 200 207 218
357 304 306 344 336 286 155 178 217 232 244 268 276 250 270 283 280 295 300 302 297 261 245 264 273 272 273 262 274 292 290 290 269 243 248 225 202 221 255 260 310 20 360 287 287 191 162 252 262 256 249 243 247 224 167 147 163 216 231 227 228 220 209 221 225 208 212 230 234 248 256 244 218 286 298 252 230 233 220 215 208 201 199 198 197 200 209 219
325 300 306 345 327 263 185 245 248 225 230 269 289 282 284 283 280 305 309 304 289 270 261 263 256 256 266 275 286 297 315 286 249 237 248 255 237 242 262 273 283 338 48 304 292 139 134 220 270 273 271 258 260 243 151 120 131 226 234 228 245 245 235 235 237 235 231 220 222 242 248 240 235 277 308 329 33 45 21 242 192 179 186 191 195 200 208 218
313 304 309 2 334 271 207 283 304 277 291 332 332 305 297 286 269 275 286 282 271 278 289 279 271 272 295 322 308 286 305 267 240 252 262 258 257 262 267 270 267 181 142 254 308 40 57 286 347 317 297 276 263 241 188 82 306 254 233 214 220 237 256 267 270 262 253 222 220 240 243 238 248 257 268 307 343 20 29 23 48 152 172 182 188 194 204 216
322 307 291 316 317 279 249 306 323 306 321 331 317 301 294 279 264 258 256 268 271 267 273 275 281 290 296 300 280 242 231 233 241 283 278 262 267 274 275 270 251 212 215 242 287 37 321 263 76 311 280 277 267 256 283 307 290 273 257 235 223 218 231 250 261 252 243 212 221 239 248 261 280 261 249 256 268 273 354 26 352 341 162 170 176 187 200 210
336 319 310 298 296 279 259 281 325 313 316 327 317 311 304 293 294 283 268 261 264 262 263 268 278 287 277 270 269 245 230 231 233 257 273 277 284 284 294 295 281 265 260 246 174 113 271 238 184 217 243 257 266 274 291 305 304 293 290 276 254 229 221 222 230 243 246 241 240 234 233 255 265 266 264 258 248 244 233 219 242 249 234 210 197 195 203 211
324 330 357 339 314 292 248 193 34 8 326 332 336 326 315 311 316 310 273 236 268 282 278 254 254 266 263 268 282 265 240 232 233 250 264 270 276 282 289 290 279 271 272 235 165 157 241 251 226 225 233 244 253 262 274 287 290 285 288 288 284 268 243 228 229 238 238 247 251 238 229 241 247 254 262 267 264 250 229 211 213 222 231 235 236 234 226 222
316 349 12 350 306 308 280 360 360 337 316 322 311 282 299 298 297 303 279 247 269 283 271 243 241 253 264 275 288 282 277 259 240 247 257 261 270 282 281 274 259 258 259 214 170 167 198 254 246 238 243 247 248 252 259 265 269 274 278 278 278 279 268 252 247 249 243 242 253 255 251 249 251 263 270 275 286 288 281 276 264 245 233 229 232 235 231 222
341 333 328 313 300 306 305 306 310 308 303 307 291 271 284 284 289 314 337 321 287 265 244 250 258 272 275 279 289 287 291 290 266 256 265 273 277 284 289 283 261 251 242 201 189 176 153 249 245 231 248 256 252 251 254 255 259 261 262 265 266 264 263 260 260 259 256 256 262 264 260 255 250 262 270 270 274 283 291 295 293 284 268 246 231 224 220 218
352 324 318 320 303 293 295 291 290 295 294 285 275 274 282 289 320 349 350 324 305 300 288 285 296 303 296 295 300 286 278 286 284 283 293 292 286 282 276 273 275 279 272 232 259 209 172 243 247 216 251 262 254 251 249 246 249 255 257 259 261 262 262 261 259 259 260 263 263 261 261 260 250 248 255 258 261 267 276 281 281 279 278 274 255 227 214 214
345 318 308 310 305 296 298 294 289 296 289 269 278 306 319 333 351 352 331 295 278 279 313 328 328 327 318 308 301 289 288 294 292 294 302 299 293 293 285 266 287 320 315 243 256 208 195 253 278 185 257 267 259 252 251 247 246 251 256 255 254 257 258 251 244 241 243 249 253 254 255 260 258 249 250 253 252 251 253 257 262 266 269 275 279 257 226 217
341 334 302 293 297 284 288 298 291 281 274 315 358 2 345 333 341 343 323 296 294 307 328 337 331 322 313 300 294 297 306 309 303 298 297 291 286 283 277 267 261 261 251 239 240 206 203 252 277 220 249 269 263 255 258 265 258 250 248 243 241 242 243 246 247 241 238 238 243 247 245 251 259 256 252 251 251 248 245 246 249 254 258 260 263 260 245 232